Location: Unspecified
(38.6830°S, 0.0000°E)
Time: 21:03:53
(UTC+00:00)

Envisat - Pass Details

Date: 01 June 2019
Orbit: 764 x 766 km, 98.1° (Epoch: 17 June)

Event Time Altitude Azimuth Distance (km) Brightness Sun altitude
Exits shadow 19:29:27 26° 344° (NNW) 1,482 4.6 -31.1°
Drops below altitude 10° 19:31:36 10° 345° (NNW) 2,307 5.7 -31.5°
Sets 19:33:53 0° 345° (NNW) 3,225 6.5 -32.0°
